Location: Lake Mineral Wells State Park
(32.8157°N, 98.0290°W)
Time: 12:41:12
(UTC-05:00)

Hubble Space Telescope - Visible Passes

Search period start: 23 October 2019 00:00
Search period end: 02 November 2019 00:00
Orbit: 536 x 540 km, 28.5° (Epoch: 22 October)

Date Brightness Start Highest point End Pass type
(mag) Time Alt. Az. Time Alt. Az. Time Alt. Az.
26 Oct 3.5 06:35:01 10° S 06:36:39 12° SSE 06:38:17 10° SE visible
27 Oct 3.3 06:23:33 10° SSW 06:25:58 15° SSE 06:28:23 10° ESE visible
28 Oct 3.0 06:13:06 13° SSW 06:15:18 18° SSE 06:18:11 10° ESE visible
29 Oct 2.6 06:03:28 19° S 06:04:38 22° SSE 06:07:52 10° ESE visible
30 Oct 2.4 05:53:46 26° S 05:53:59 26° SSE 05:57:27 10° ESE visible
31 Oct 2.4 05:44:00 28° SSE 05:44:00 28° SSE 05:46:59 10° ESE visible
31 Oct 1.6 07:20:18 10° WSW 07:24:15 45° S 07:28:12 10° ESE visible
01 Nov 2.7 05:34:10 26° SE 05:34:10 26° SE 05:36:29 10° ESE visible
01 Nov 1.5 07:09:41 10° WSW 07:13:38 46° S 07:17:36 10° ESE visible
